Home > Weather > Almería > Past weeks

Flag for Spain Weather for the Past 2 Weeks in Almería, Spain

Now
60 °F

Cool.


Feels Like: 60 °F
Forecast: 58 / 69 °F
Wind: 8 mph from West

Location: Almeria / Aeropuerto

Current Time: Feb 10, 2016 at 9:42:31 PM

Latest Report: Feb 10, 2016 at 9:00 PM


Visibility: N/A

Pressure: 30.03 "Hg

Humidity: 80%

Dew point: 54 °F

Location of AlmeríaLocation

Historic Weather in Almería — Graph

°F

Almería Temperature Yesterday

Maximum temperature yesterday: 67 °F (at 3:00 PM)
Minimum temperature yesterday: 47 °F (at 8:00 AM)
Average temperature yesterday: 60 °F

High & Low Weather Summary for the Past Weeks

 TemperatureHumidityPressure
High69 °F (Feb 7, 12:00 PM)97% (Feb 3, 7:00 AM)30.56 "Hg (Feb 3, 7:00 AM)
Low45 °F (Jan 31, 8:00 AM)19% (Feb 7, 2:00 PM)29.96 "Hg (Feb 7, 7:00 AM)
Average58 °F70%30.33 "Hg
* Reported Jan 26 8:00 PM — Feb 10 8:00 PM, Almería, Weather by CustomWeather, © 2016

Note: Actual official high and low records may vary slightly from our data, if they occured in-between our weather recording intervals... More about our weather records

Advertising

Almería Weather History for the Previous 24 Hours

 ConditionsComfort  
Time TempWeatherWind HumidityBarometerVisibility
8:00 PM
Wed, Feb 10
60 °FCool.18 mph83%30.03 "HgN/A
7:00 PM61 °FOvercast.22 mph81%30.03 "Hg16 mi
6:00 PM62 °FCool.22 mph75%30.02 "HgN/A
5:00 PM64 °FMild.18 mph72%30.01 "HgN/A
4:00 PM66 °FPartly sunny.14 mph65%30.01 "Hg19 mi
3:00 PM66 °FMild.17 mph65%30.01 "HgN/A
2:00 PM68 °FMild.18 mph61%30.04 "HgN/A
1:00 PM65 °FScattered clouds.5 mph62%30.09 "Hg22 mi
12:00 PM64 °FMild.2 mph70%30.11 "HgN/A
11:00 AM62 °FCool.8 mph75%30.11 "HgN/A
10:00 AM60 °FPartly sunny.8 mph81%30.12 "Hg16 mi
9:00 AM58 °FCool.No wind76%30.12 "HgN/A
8:00 AM59 °FCool.6 mph74%30.09 "HgN/A
7:00 AM57 °FPassing clouds.5 mph80%30.07 "Hg19 mi
4:00 AM58 °FCool.12 mph80%30.07 "HgN/A
3:00 AM58 °FCool.14 mph83%30.09 "HgN/A
1:00 AM58 °FCool.5 mph82%30.12 "HgN/A
12:00 AM59 °FCool.16 mph82%30.12 "HgN/A
11:00 PM
Tue, Feb 9
59 °FCool.18 mph79%30.13 "HgN/A
10:00 PM59 °FPassing clouds.9 mph69%30.14 "Hg19 mi
9:00 PM60 °FCool.12 mph67%30.13 "HgN/A
Weather by CustomWeather, © 2016

See weather overviewHow to use our weather pages